Regional Weather Roundup
Issued by NWS Charleston, SC

Home | Current Version | Previous Version | Text Only | Print | Product List | Glossary On
Versions: 1 2 3 4 5 6 7 8 9 10 11 12 13 14 15 16 17 18 19 20 21 22 23 24 25 26 27 28 29 30 31 32 33 34 35 36 37 38 39 40 41 42 43 44 45 46 47 48 49 50
000
ASUS42 KCHS 301626
RWRCHS

REGIONAL WEATHER ROUNDUP
NATIONAL WEATHER SERVICE CHARLESTON SC
1100 AM EST FRI JAN 30 2015

NOTE: "FAIR" INDICATES FEW OR NO CLOUDS BELOW 12,000 FEET WITH NO
SIGNIFICANT WEATHER AND/OR OBSTRUCTIONS TO VISIBILITY.

NOT ALL STATIONS ARE QUALITY CONTROLLED BY THE NATIONAL
WEATHER SERVICE. USE DATA WITH CAUTION...ESPECIALLY
DEWPOINT OBSERVATIONS.

SCZ027-030-031-034>040-042>050-301700-
...SOUTHEAST SOUTH CAROLINA...

CITY           SKY/WX    TMP DP  RH WIND       PRES   REMARKS
N CHARLESTON   MOSUNNY   56  34  43 N20G26    30.13R
WATERFRONT PRK   N/A     54 N/A N/A NW15G24     N/A
MOUNT PLEASANT FAIR      54  34  47 NW17G24   30.12R
PINOPOLIS        N/A     52  37  58 NW15      30.06R
MONCKS CORNER  FAIR      54  34  47 NW9G17    30.14R
SUMMERVILLE    FAIR      54  34  47 NW15G25   30.16R
BEAUFORT MCAS  MOSUNNY   56  38  50 NW18      30.15S
BEAUFORT ARPT  FAIR      55  41  58 NW15G24   30.14S
HILTON HEAD IS SUNNY     55  41  58 NW12G21   30.15S
WALTERBORO     SUNNY     55  28  35 N14G21    30.17R
ALLENDALE      FAIR      54  34  47 NW9G15    30.18S

...SOUTHERN MIDLANDS AND PEE DEE...

CITY           SKY/WX    TMP DP  RH WIND       PRES   REMARKS
GEORGETOWN     NOT AVBL
KINGSTREE      NOT AVBL
ORANGEBURG     SUNNY     51  27  39 NW13      30.18R
BARNWELL       FAIR      52  34  50 N14G23    30.20R
AIKEN          FAIR      50  32  50 NW13      30.24R
MANNING        FAIR      54  30  40 NW10G20   30.15R
COLUMBIA       MOSUNNY   50  27  40 NW16G22   30.20R
SUMTER         SUNNY     51  27  40 NW16G24   30.15R
FLORENCE       SUNNY     51  29  42 N18G26    30.14R
MYRTLE BEACH   SUNNY     54  32  43 NW14G23   30.10R
N MYRTLE BEACH SUNNY     52  31  44 N14G22    30.08R

$$

GAZ063-065-086>088-099>101-113>116-118-119-134>141-150-301700-
...SOUTHEAST GEORGIA...

CITY           SKY/WX    TMP DP  RH WIND       PRES   REMARKS
SAVANNAH ARPT  MOSUNNY   54  37  52 NW21      30.18R
HUNTER AAF     SUNNY     56  40  54 NW17      30.15R
FORT STEWART   SUNNY     54  36  49 NW16      30.18R
STATESBORO     SUNNY     52  36  53 NW15G23   30.21R
SYLVANIA       SUNNY     53  37  54 N16G22    30.21R
CLAXTON        FAIR      54  36  50 NW15G23   30.22R

...CSRA...CENTRAL AND FAR SOUTHEAST GEORGIA...

CITY           SKY/WX    TMP DP  RH WIND       PRES   REMARKS
THOMSON        SUNNY     51  31  46 NW14      30.29R
AUGUSTA-BUSH   SUNNY     52  29  41 N14G21    30.22R
AUGUSTA-DANIEL SUNNY     50  28  42 NW15G26   30.22R
SWAINSBORO     FAIR      52  19  28 NW10G21   30.24S
VIDALIA        SUNNY     52  32  46 NW10      30.24S
EASTMAN        FAIR      51  30  45 N9        30.30R
HAZLEHURST     FAIR      52  32  46 NW12G22   30.24S
ALMA           SUNNY     53  37  54 NW17      30.23R
WAYCROSS       MOSUNNY   60  41  50 N14       30.22R
JESUP          FAIR      57  41  54 NW12G18   30.21R
BAXLEY         FAIR      54  34  47 N12       30.23R
BRUNSWICK      SUNNY     61  41  48 W14       30.18R
SAINT SIMONS   SUNNY     59  45  59 W10G16    30.16S

$$

SCZ027-028-034-036>038-045-046-048>050-GAZ119-141-301700-
...LAKE AND SUPPLEMENTAL COASTAL OBSERVATIONS...

STATION/POSITION TIME  TEMP    WIND        PRES    WAVE   SWELL
                       AIR SEA DIR/SP/G            HT/PER HT/PER/DIR
                 (UTC) (F)     (DEG/KT/KT) (MB)    (FT/S) (FT/S/D)
UPR LAKE MARION  NOT AVBL
WINYAH BAY       NOT AVBL
LAKE MURRAY      1600   47     340/  6/ 12 1022.0R
ACE BASIN NERRS  NOT AVBL
FORT PULASKI     1600   53 52  320/ 18/ 22 1021.5R
SAPELO ISLAND    NOT AVBL

$$

ANZ835-935-AMZ111-154-330-350-352-354-370-450-454-472-301700-
...C-MAN AND BUOY OBSERVATIONS...

STATION/POSITION TIME  TEMP    WIND        PRES    WAVE   SWELL
                       AIR SEA DIR/SP/G            HT/PER HT/PER/DIR
                 (UTC) (F)     (DEG/KT/KT) (MB)    (FT/S) (FT/S/D)
BUOY 41004       1550   56 68  340/ 21/ 25 1018.3R   5/ 6   2/11
BUOY 41008       1550   54 54  320/ 17/ 21 1020.7R   3/ 3   2/ 70/10
FOLLY BEACH CMAN 1600   55     330/ 13/ 16 1020.1R
CAPERS NEARSHORE 1500   54     320/ 19/ 23   N/A
FRIPP NEARSHORE  1500   54     340/ 19/ 23 1019.7R


STATION/POSITION TIME  TEMP    WIND        PRES    WAVE   SWELL
                       AIR SEA DIR/SP/G            HT/PER HT/PER/DIR
                 (UTC) (F)     (DEG/KT/KT) (MB)    (FT/S) (FT/S/D)
5E ST. MARYS GA  1521      56                N/A     2/12   2/ 90/12
FRYING PAN BUOY  1550   51 63  340/ 21/ 25 1017.7R   6/ 7
BUOY 41025       1550   46 68  340/ 23/ 27 1014.4R   5/ 7   2/180/ 8
CAPE LOOKOUT NC  1600   46     330/ 16/ 19 1015.9F
BUOY 41002       1550   66 72  230/ 23/ 29 1014.7F   8/ 6   2/ 30/11
BUOY 41010       1520   68 74  260/ 17/ 21 1021.3S
ST AUGUSTINE FL  1600   60     290/ 10/ 12 1021.9F


$$



USA.gov is the U.S. government's official web portal to all federal, state and local government web resources and services.